Wind_Speed
49 52 51 53 55 62 58 57 54 52 52 52 52 51 47 48 48 45 43 41 42 41 39 41 41 39 37 37 38 39 40 41 41 43 40 40 39 38 38 39 40 40 40 40
51 52 48 47 52 59 63 60 55 55 55 56 56 55 50 50 50 48 47 47 46 46 45 44 44 43 41 40 41 42 41 44 45 45 47 45 44 43 43 43 44 43 43 43
49 51 49 48 49 52 59 64 67 64 60 58 59 61 56 51 54 52 52 50 50 48 49 50 49 48 45 43 44 45 45 46 49 48 49 49 48 48 47 47 47 47 47 46
53 58 50 51 53 50 53 54 60 68 69 68 67 69 63 59 57 56 53 54 54 53 54 54 53 51 50 48 46 47 49 48 50 54 54 52 51 51 50 50 49 50 50 51
54 52 48 46 45 44 50 49 51 53 56 64 67 69 65 60 58 55 55 56 54 53 54 55 55 53 50 52 51 49 49 50 49 53 56 55 54 53 53 53 54 54 54 55
53 53 50 49 47 47 49 48 47 50 54 61 61 59 64 60 55 49 50 51 50 49 50 52 54 54 51 50 51 52 52 51 53 54 55 57 57 56 57 58 58 58 58 59
48 49 51 47 45 47 48 48 49 52 52 58 55 54 59 59 54 51 49 51 49 46 47 50 51 51 51 50 51 52 52 52 52 54 55 57 58 59 60 60 61 61 62 62
44 48 49 51 50 48 48 47 49 49 51 53 55 59 58 58 55 50 47 45 49 50 53 55 54 53 53 52 52 53 53 53 53 54 56 58 59 60 61 62 62 63 64 64
45 44 47 48 47 48 48 49 45 48 50 52 56 61 60 57 54 49 47 44 43 49 52 52 52 50 49 49 51 52 53 53 53 54 54 56 58 59 61 62 64 65 65 66
42 49 50 49 49 52 52 52 52 54 56 58 60 60 54 51 50 52 50 47 46 43 44 49 54 50 48 48 49 49 50 52 53 55 56 57 58 60 62 63 64 65 66 67
51 51 46 48 53 51 50 51 53 55 58 60 62 60 57 56 56 58 56 51 48 48 48 48 50 53 56 55 52 49 49 49 51 53 54 56 57 59 61 62 63 64 65 65
47 52 58 56 50 48 50 52 54 57 57 57 61 64 59 58 58 59 56 54 51 48 48 48 48 49 51 55 58 58 57 55 54 54 54 56 58 60 60 60 61 62 63 65
47 50 49 55 60 63 60 55 56 54 55 61 63 59 56 56 59 57 55 54 53 52 48 45 44 45 49 51 53 55 56 57 58 58 56 56 58 59 61 61 59 60 61 61
43 46 50 51 49 50 54 56 54 53 55 56 59 56 58 58 52 51 52 52 51 49 51 49 47 46 43 45 48 50 52 53 54 55 56 56 56 56 57 57 58 59 60 62
42 46 45 49 49 52 52 50 49 52 57 61 55 59 49 53 53 52 51 54 51 50 52 52 49 47 45 45 45 47 48 48 48 48 49 50 51 53 53 55 57 59 61 62
47 47 46 50 47 47 48 50 52 54 54 56 53 57 48 45 48 49 45 45 47 46 46 48 45 43 43 44 43 44 45 45 47 48 48 49 50 51 52 54 57 59 61 62
49 47 46 50 51 53 55 47 46 47 51 53 56 50 42 44 47 44 46 49 51 51 50 48 49 49 48 46 44 42 42 42 44 46 46 44 43 45 49 54 57 61 64 66
41 38 41 48 46 57 52 49 49 56 60 57 56 54 50 51 52 56 49 48 46 44 47 49 52 53 49 44 42 42 42 45 47 49 48 50 51 53 56 58 59 58 60 59
44 46 51 53 54 49 54 47 52 54 56 54 54 54 51 45 51 53 48 46 44 42 47 54 52 48 46 45 44 44 45 47 50 51 53 53 56 56 53 54 58 60 61 62
56 57 58 57 63 64 45 45 56 59 64 51 55 53 50 51 57 49 43 47 50 53 57 55 53 52 48 43 43 45 48 49 52 53 54 60 59 56 54 54 59 62 65 69
57 58 62 63 67 70 58 51 54 61 55 50 53 54 50 49 56 57 57 56 58 58 55 54 54 51 50 48 49 50 53 54 54 58 60 58 58 54 58 64 65 67 72 76
42 46 52 61 67 73 65 66 66 64 63 59 56 56 56 46 49 56 60 62 53 53 56 56 55 55 54 51 53 53 56 58 59 54 56 56 59 64 67 69 71 74 77 78
32 40 48 56 59 68 66 68 73 73 73 69 67 61 63 58 47 49 58 59 58 54 52 52 54 52 51 54 55 57 56 55 54 57 59 62 65 68 73 77 78 77 78 81
14 23 29 40 39 52 64 63 72 71 75 76 81 77 74 73 66 63 63 63 62 54 48 52 54 52 55 56 57 56 57 61 60 60 62 64 68 75 79 77 73 77 79 79
17 23 28 30 29 38 41 44 54 54 56 63 65 74 76 79 73 74 65 52 54 56 54 56 58 59 59 63 65 63 63 65 62 65 66 70 75 78 70 67 70 68 68 66
21 22 21 19 24 25 26 34 36 30 35 55 66 69 69 68 61 56 60 61 60 54 50 54 57 62 63 64 66 67 66 69 71 71 78 80 70 64 58 56 57 59 61 62
Wind_Direction
224 230 233 234 236 235 233 235 239 240 242 245 246 243 246 248 252 252 255 258 259 262 264 267 270 272 272 273 271 268 263 259 258 261 259 260 262 263 264 266 268 270 272 274
230 230 231 232 235 233 232 236 239 242 243 244 246 249 247 252 256 260 261 261 263 265 269 272 271 269 272 272 271 271 267 261 258 258 261 261 261 263 264 266 267 269 271 272
239 236 237 234 235 238 238 238 239 243 244 247 249 250 251 251 255 260 264 266 270 274 274 274 275 276 274 275 274 270 269 265 262 258 259 262 263 263 264 265 268 270 272 273
233 235 237 239 235 235 238 239 240 242 245 247 249 252 250 252 255 259 263 267 269 270 272 274 275 276 277 275 272 271 269 267 263 262 261 260 262 264 265 267 268 270 272 273
234 235 234 241 241 247 244 242 241 242 243 245 246 251 252 252 256 259 261 263 266 267 269 272 273 273 271 273 272 269 267 264 261 257 259 261 262 263 264 266 268 269 272 274
238 236 236 239 240 241 245 243 244 245 245 245 246 250 252 255 254 256 259 262 264 265 265 265 268 271 271 269 269 268 266 261 258 256 255 258 262 263 264 265 267 268 270 272
237 239 235 235 234 238 242 248 246 244 248 251 253 254 253 256 256 256 255 256 259 262 264 265 266 266 267 269 268 268 268 267 265 261 258 258 259 261 263 266 267 269 270 272
234 238 241 242 243 244 248 245 249 253 257 259 260 255 253 256 259 260 260 256 258 259 261 263 265 268 269 267 267 268 266 264 262 259 258 259 260 261 263 265 268 269 270 272
239 239 238 238 236 236 239 239 244 248 253 255 256 253 253 256 259 269 269 269 267 266 264 263 263 261 264 266 266 265 265 265 265 264 263 263 264 265 266 267 268 270 272 274
244 239 238 236 236 236 237 239 241 243 246 251 256 259 260 262 263 270 273 271 270 268 267 261 259 262 263 264 263 263 263 264 266 267 267 267 268 268 269 270 271 272 274 275
241 237 237 235 236 237 238 240 245 249 251 257 260 261 262 262 265 270 275 277 275 273 272 269 264 261 262 264 267 267 267 266 265 266 267 267 267 267 268 270 272 273 274 276
236 241 244 243 239 238 238 241 244 247 251 255 258 258 263 268 270 271 275 279 276 273 270 267 266 265 264 263 264 266 267 268 268 267 267 268 268 270 271 272 273 275 276 277
232 249 250 243 242 241 242 249 254 256 257 257 257 259 264 265 269 273 275 274 275 274 268 265 262 261 263 264 265 265 265 264 265 265 266 267 269 270 271 273 273 274 275 277
229 233 237 244 248 248 250 253 252 251 253 257 258 257 255 264 267 269 270 270 270 268 268 268 267 266 265 263 264 266 266 266 267 269 269 270 271 271 273 274 275 276 277 278
243 246 247 242 245 248 248 249 251 251 253 257 258 260 258 265 269 268 269 270 269 269 270 271 270 270 267 266 264 263 265 267 269 270 270 271 272 274 276 277 277 278 279 280
239 237 243 251 250 250 250 252 254 258 262 263 270 267 267 269 265 264 264 269 271 270 269 271 271 270 268 266 264 263 264 265 267 269 271 272 274 277 280 282 282 283 283 283
227 237 244 249 251 251 252 251 257 262 258 261 260 265 262 256 260 263 268 267 269 273 270 270 272 272 271 269 269 271 269 270 268 268 269 273 278 284 287 288 286 286 285 284
231 239 243 251 249 249 255 252 255 261 258 256 258 259 260 261 261 261 265 270 273 269 266 267 269 271 272 274 276 275 274 271 269 268 267 271 277 289 298 295 290 286 285 285
247 252 250 245 242 245 242 249 255 254 254 257 261 262 259 256 257 255 261 266 267 265 263 264 265 268 272 275 278 277 272 269 273 275 279 284 297 304 301 295 291 289 288 287
248 252 255 249 248 252 240 249 250 255 258 257 259 259 259 258 258 252 259 260 262 262 265 268 269 272 275 276 273 268 270 274 279 285 292 297 299 301 296 292 290 288 288 287
257 263 261 260 265 254 240 245 253 253 265 258 256 258 258 263 264 262 259 262 262 264 267 269 272 275 276 274 272 274 277 278 284 288 294 296 297 292 290 291 287 284 283 284
268 271 270 265 266 264 255 247 256 261 262 261 261 265 266 264 264 261 261 260 262 266 267 269 270 272 273 269 271 273 276 280 286 291 291 294 291 290 287 285 285 286 287 288
272 270 272 272 271 266 266 265 266 267 264 265 266 270 265 257 265 268 257 255 254 267 273 271 270 269 266 266 271 277 282 285 286 287 290 290 291 289 284 283 285 286 286 287
286 284 285 275 275 276 272 273 272 270 269 267 267 267 263 263 266 266 270 261 267 267 271 277 269 262 264 268 276 278 280 283 283 284 283 284 285 282 283 286 286 285 285 285
288 289 285 297 291 281 291 286 279 273 264 262 258 264 263 259 262 261 262 258 260 276 278 270 262 260 265 273 277 280 279 275 273 279 280 282 280 283 283 285 288 288 287 283
258 292 323 336 322 325 317 291 294 292 283 259 255 254 255 256 257 254 252 257 270 268 263 272 268 268 270 269 272 268 266 269 272 275 276 280 280 279 282 287 289 287 284 283
Height
5731 5737 5748 5756 5760 5765 5770 5774 5779 5783 5786 5787 5790 5794 5799 5803 5806 5811 5815 5818 5820 5822 5824 5825 5827 5830 5832 5832 5832 5832 5834 5835 5835 5836 5838 5839 5840 5839 5840 5839 5839 5838 5838 5838
5723 5731 5740 5744 5747 5754 5760 5765 5770 5773 5776 5778 5781 5785 5792 5796 5800 5804 5806 5808 5811 5813 5816 5818 5817 5819 5822 5823 5824 5824 5825 5825 5827 5828 5829 5830 5831 5832 5831 5831 5830 5829 5829 5828
5715 5724 5730 5735 5740 5745 5750 5756 5759 5763 5767 5769 5771 5775 5783 5791 5791 5794 5797 5801 5802 5804 5805 5806 5806 5808 5811 5813 5813 5814 5815 5816 5815 5818 5819 5820 5821 5821 5821 5821 5820 5820 5819 5819
5705 5712 5719 5725 5730 5735 5739 5745 5747 5751 5755 5758 5763 5761 5773 5780 5785 5787 5791 5792 5793 5793 5793 5795 5797 5799 5800 5801 5803 5803 5803 5805 5806 5805 5806 5809 5810 5810 5811 5810 5810 5809 5808 5808
5701 5706 5712 5717 5725 5728 5731 5735 5737 5739 5740 5745 5750 5751 5761 5772 5776 5781 5781 5781 5781 5783 5784 5785 5785 5787 5790 5789 5790 5790 5791 5792 5794 5793 5793 5795 5797 5798 5798 5798 5798 5797 5797 5796
5688 5696 5702 5708 5713 5717 5719 5724 5727 5728 5729 5731 5741 5744 5750 5759 5768 5772 5771 5771 5771 5772 5773 5773 5774 5775 5777 5779 5778 5778 5778 5779 5779 5781 5783 5783 5785 5785 5785 5785 5785 5785 5784 5783
5681 5686 5694 5699 5703 5706 5711 5716 5717 5717 5720 5725 5732 5734 5746 5746 5753 5757 5761 5760 5761 5760 5761 5762 5763 5764 5764 5766 5767 5767 5768 5769 5770 5770 5770 5771 5772 5772 5772 5772 5772 5771 5769 5769
5674 5680 5686 5693 5698 5702 5704 5708 5711 5713 5715 5718 5720 5722 5735 5736 5739 5744 5747 5750 5748 5749 5751 5751 5751 5751 5752 5754 5754 5754 5755 5755 5757 5758 5758 5758 5759 5759 5759 5758 5757 5756 5755 5754
5667 5671 5676 5682 5687 5691 5694 5695 5704 5703 5705 5706 5707 5712 5721 5726 5728 5729 5733 5736 5738 5739 5739 5739 5739 5739 5740 5741 5742 5742 5742 5743 5745 5746 5746 5746 5746 5746 5746 5745 5743 5742 5740 5739
5656 5660 5665 5669 5674 5678 5683 5688 5690 5690 5692 5694 5698 5702 5711 5717 5719 5718 5720 5722 5724 5726 5725 5725 5726 5728 5728 5728 5729 5730 5731 5732 5732 5733 5733 5734 5733 5733 5732 5731 5729 5728 5726 5724
5646 5651 5656 5658 5664 5671 5675 5676 5680 5682 5684 5686 5689 5696 5702 5704 5707 5707 5707 5708 5711 5711 5711 5712 5713 5714 5715 5717 5716 5718 5719 5719 5720 5720 5720 5719 5718 5717 5715 5715 5714 5713 5710 5708
5640 5641 5644 5651 5655 5659 5663 5666 5666 5666 5673 5675 5677 5682 5693 5695 5695 5695 5696 5695 5694 5696 5697 5699 5700 5701 5702 5702 5702 5704 5706 5706 5705 5705 5705 5704 5703 5702 5702 5700 5698 5697 5695 5692
5628 5629 5633 5638 5643 5648 5649 5655 5658 5659 5660 5662 5666 5676 5684 5685 5682 5683 5682 5681 5681 5681 5682 5685 5687 5689 5689 5690 5690 5690 5691 5691 5690 5690 5689 5688 5687 5687 5685 5684 5682 5680 5678 5676
5616 5618 5623 5630 5637 5638 5641 5645 5648 5649 5648 5656 5652 5669 5668 5667 5672 5671 5669 5665 5665 5666 5667 5671 5674 5676 5678 5678 5678 5677 5677 5676 5677 5677 5676 5675 5673 5671 5669 5668 5667 5665 5662 5659
5607 5610 5613 5622 5623 5624 5628 5632 5634 5634 5643 5637 5654 5649 5665 5661 5658 5658 5656 5652 5650 5652 5655 5658 5661 5664 5666 5666 5666 5665 5665 5664 5664 5664 5662 5660 5658 5656 5654 5652 5650 5648 5646 5644
5600 5603 5604 5611 5612 5613 5614 5618 5624 5628 5632 5628 5641 5638 5656 5654 5645 5644 5644 5640 5640 5642 5644 5644 5648 5650 5651 5651 5652 5651 5651 5650 5649 5650 5648 5646 5644 5643 5641 5638 5635 5633 5630 5628
5591 5593 5595 5597 5602 5602 5601 5613 5617 5619 5621 5624 5621 5636 5638 5636 5635 5636 5632 5628 5628 5630 5631 5632 5633 5634 5635 5636 5636 5638 5637 5637 5637 5636 5635 5633 5632 5630 5628 5625 5622 5619 5616 5612
5581 5582 5583 5587 5587 5584 5599 5603 5604 5603 5607 5610 5608 5616 5626 5627 5625 5616 5618 5617 5618 5616 5617 5619 5619 5620 5621 5622 5623 5624 5624 5623 5622 5622 5621 5619 5618 5616 5614 5611 5607 5603 5600 5596
5571 5573 5573 5575 5576 5578 5587 5600 5596 5589 5593 5598 5598 5604 5608 5609 5601 5604 5611 5609 5604 5602 5603 5604 5606 5608 5608 5609 5609 5610 5609 5607 5607 5606 5605 5603 5601 5599 5596 5594 5591 5588 5584 5581
5564 5565 5565 5568 5564 5563 5590 5591 5585 5577 5570 5599 5590 5587 5593 5591 5580 5592 5600 5592 5590 5587 5589 5593 5594 5595 5595 5595 5595 5594 5593 5592 5591 5589 5587 5585 5582 5580 5578 5576 5574 5571 5567 5562
5554 5554 5556 5557 5551 5554 5583 5580 5571 5565 5577 5578 5573 5574 5577 5573 5575 5581 5580 5579 5578 5577 5577 5578 5579 5581 5582 5582 5580 5579 5578 5577 5575 5574 5572 5569 5566 5562 5559 5556 5554 5551 5547 5543
5543 5542 5546 5545 5544 5547 5564 5561 5558 5557 5557 5559 5560 5558 5561 5564 5563 5564 5567 5567 5565 5565 5565 5565 5565 5565 5565 5564 5564 5564 5563 5561 5559 5556 5554 5551 5547 5544 5540 5536 5532 5528 5525 5521
5540 5536 5535 5535 5536 5537 5541 5542 5544 5540 5540 5545 5546 5546 5546 5548 5551 5551 5553 5552 5553 5550 5550 5549 5548 5549 5550 5549 5548 5548 5545 5543 5541 5539 5536 5533 5530 5526 5521 5517 5513 5508 5504 5499
5532 5528 5524 5519 5526 5522 5522 5520 5523 5524 5523 5525 5523 5527 5528 5529 5536 5538 5536 5538 5539 5536 5534 5533 5534 5534 5534 5533 5533 5531 5528 5526 5524 5521 5518 5515 5512 5507 5503 5499 5494 5489 5484 5480
5527 5522 5518 5516 5515 5507 5510 5505 5504 5503 5502 5506 5506 5506 5508 5507 5518 5518 5520 5519 5519 5519 5518 5516 5516 5516 5516 5516 5515 5513 5510 5508 5505 5502 5499 5496 5490 5487 5482 5478 5472 5467 5463 5460
5519 5517 5514 5512 5511 5506 5503 5498 5495 5493 5490 5489 5489 5494 5494 5495 5498 5497 5500 5499 5499 5500 5499 5499 5498 5497 5496 5495 5494 5492 5489 5488 5485 5482 5479 5475 5471 5468 5463 5459 5454 5450 5446 5443